This is the latest recevied weather packets stored in our database for station/object F8KHU-13. If no packets are shown the sender has not sent any weather packets the latest 10 day(s).
| Time | Temp. | Humidity | Pressure | Rain* | Wind** | Luminosity | Snow |
|---|---|---|---|---|---|---|---|
| 1777745395 | 23.89° C | 25% | 1016 hPa | 0 mm | - | 0 W/m² | - |
| 1777744535 | 24.44° C | 25% | 1016 hPa | 0 mm | - | 0 W/m² | - |
| 1777744515 | 24.44° C | 25% | 1016 hPa | 0 mm | - | 0 W/m² | - |
| 1777744495 | 24.44° C | 25% | 1016 hPa | 0 mm | - | 0 W/m² | - |
| 1777743635 | 25° C | 25% | 1016 hPa | 0 mm | - | 0 W/m² | - |
| 1777743615 | 25° C | 25% | 1016 hPa | 0 mm | - | 0 W/m² | - |
| 1777743595 | 25° C | 25% | 1015.9 hPa | 0 mm | - | 0 W/m² | - |
| 1777742735 | 25° C | 25% | 1016 hPa | 0 mm | - | 0 W/m² | - |
| 1777742715 | 25° C | 25% | 1016 hPa | 0 mm | - | 0 W/m² | - |
| 1777742695 | 25° C | 25% | 1016 hPa | 0 mm | - | 0 W/m² | - |
| 1777741835 | 25.56° C | 25% | 1016.2 hPa | 0 mm | - | 0 W/m² | - |
| 1777741815 | 25.56° C | 25% | 1016.1 hPa | 0 mm | - | 0 W/m² | - |
| 1777741795 | 25.56° C | 25% | 1016.1 hPa | 0 mm | - | 0 W/m² | - |
| 1777740935 | 25.56° C | 25% | 1016.3 hPa | 0 mm | - | 0 W/m² | - |
| 1777740916 | 26.67° C | 24% | 1016.3 hPa | 0 mm | - | 0 W/m² | - |
| 1777740896 | 26.67° C | 24% | 1016.2 hPa | 0 mm | - | 0 W/m² | - |
| 1777740036 | 26.67° C | 24% | 1016.4 hPa | 0 mm | - | 0 W/m² | - |
| 1777740016 | 26.67° C | 24% | 1016.5 hPa | 0 mm | - | 0 W/m² | - |
| 1777739996 | 26.67° C | 24% | 1016.4 hPa | 0 mm | - | 0 W/m² | - |
| 1777739136 | 27.78° C | 24% | 1016.7 hPa | 0 mm | - | 0 W/m² | - |
| 1777739096 | 27.78° C | 24% | 1016.7 hPa | 0 mm | - | 0 W/m² | - |
| 1777738216 | 27.78° C | 24% | 1016.7 hPa | 0 mm | - | 0 W/m² | - |
| 1777738196 | 27.78° C | 24% | 1016.8 hPa | 0 mm | - | 0 W/m² | - |
| 1777737316 | 26.67° C | 24% | 1017.2 hPa | 0 mm | - | 0 W/m² | - |
| 1777737296 | 26.67° C | 24% | 1017.1 hPa | 0 mm | - | 0 W/m² | - |
* Rain latest hour (hover to see other rain measurements)
** Current wind speed in m/s (hover to see current wind gust speed)